Tracking 20724 objects as of 2-Jun-2020
HD Live streaming from Space Station
objects crossing your sky now

COSMOS 1867 COOLANT

Track COSMOS 1867 COOLANT now!
10-day predictions


NORAD ID: 39645
Int'l Code: 1987-060N
Perigee: 783.6 km
Apogee: 802.9 km
Inclination: 65.0 °
Period: 100.6 minutes
Semi major axis: 7164 km
RCS: Unknown
Launch date: July 10, 1987
Source: Commonwealth of Independent States (former USSR) (CIS)
Launch site: TYURATAM MISSILE AND SPACE COMPLEX (TTMTR)

Note: This is SATELLITE DEBRIS
aabbcc
Your satellite tracking list
Your tracking list is empty




NASA's NSSDC Master Catalog

Two Line Element Set (TLE):
1 39645U 87060N   20153.22361007 -.00000030  00000-0  26230-4 0  9991
2 39645  65.0125  82.6724 0013456 271.0124  88.9418 14.31675462322625
Source of the keplerian elements: AFSPC